When you browse on this site, cookies collect data to enhance your experience and personalize the content and advertising you see.
Visit our Privacy Policy to learn more. By continuing to use the site, you agree to this use of cookies and data.
  • In Schweiz
  • Länderverzeichnis
  • Für 7 Tage
  • Wassertemperatur
  • Wetterkarte
  • Widgets
  • user-avatar
    Anmelden

    Stündliche Wetter Toulon

    Heute, 15 November, Freitag

    Zeit Temperatur Niederschläge Wind Luftdruck Luftfeuchtigkeit
    00:00 +7°C° 0.1 mm 5 m/S 737 mmHg 88%
    01:00 +6°C° 0 mm 5 m/S 737 mmHg 87%
    02:00 +6°C° 0 mm 4 m/S 738 mmHg 87%
    03:00 +5°C° 0 mm 4 m/S 738 mmHg 87%
    04:00 +5°C° 0 mm 4 m/S 739 mmHg 87%
    05:00 +4°C° 0 mm 3 m/S 739 mmHg 87%
    06:00 +5°C° 0 mm 2 m/S 740 mmHg 87%
    07:00 +6°C° 0 mm 2 m/S 740 mmHg 82%
    08:00 +8°C° 0 mm 1 m/S 740 mmHg 77%
    09:00 +9°C° 0 mm 1 m/S 741 mmHg 73%
    10:00 +10°C° 0 mm 1 m/S 740 mmHg 67%
    11:00 +11°C° 0 mm 1 m/S 740 mmHg 61%
    12:00 +12°C° 0 mm 1 m/S 740 mmHg 56%
    13:00 +12°C° 0 mm 2 m/S 740 mmHg 58%
    14:00 +11°C° 0 mm 4 m/S 739 mmHg 61%
    15:00 +9°C° 0 mm 5 m/S 739 mmHg 64%
    16:00 +9°C° 0.7 mm 5 m/S 739 mmHg 69%
    17:00 +9°C° 0.7 mm 5 m/S 739 mmHg 74%
    18:00 +8°C° 0.7 mm 6 m/S 739 mmHg 78%
    19:00 +8°C° 1.5 mm 5 m/S 740 mmHg 81%
    20:00 +8°C° 1.5 mm 5 m/S 740 mmHg 84%
    21:00 +7°C° 1.5 mm 5 m/S 741 mmHg 87%
    22:00 +7°C° 0.2 mm 5 m/S 741 mmHg 88%
    23:00 +7°C° 0.2 mm 4 m/S 742 mmHg 88%

    Morgen, 16 November, Samstag

    Zeit Temperatur Niederschläge Wind Luftdruck Luftfeuchtigkeit
    00:00 +7°C° 0.2 mm 4 m/S 743 mmHg 88%
    01:00 +6°C° 0 mm 4 m/S 743 mmHg 88%
    02:00 +7°C° 0 mm 3 m/S 743 mmHg 87%
    03:00 +7°C° 0 mm 3 m/S 744 mmHg 87%
    04:00 +5°C° 0 mm 3 m/S 744 mmHg 87%
    05:00 +6°C° 0 mm 2 m/S 745 mmHg 87%
    06:00 +6°C° 0 mm 2 m/S 745 mmHg 86%
    07:00 +7°C° 0 mm 2 m/S 745 mmHg 83%
    08:00 +8°C° 0 mm 2 m/S 746 mmHg 80%
    09:00 +9°C° 0 mm 2 m/S 746 mmHg 76%
    10:00 +10°C° 0 mm 2 m/S 746 mmHg 71%
    11:00 +12°C° 0 mm 2 m/S 746 mmHg 66%
    12:00 +13°C° 0 mm 2 m/S 746 mmHg 61%
    13:00 +13°C° 0 mm 2 m/S 746 mmHg 62%
    14:00 +12°C° 0 mm 2 m/S 745 mmHg 64%
    15:00 +12°C° 0 mm 2 m/S 745 mmHg 66%
    16:00 +10°C° 0 mm 2 m/S 745 mmHg 69%
    17:00 +9°C° 0 mm 2 m/S 745 mmHg 72%
    18:00 +8°C° 0 mm 3 m/S 745 mmHg 75%
    19:00 +8°C° 0 mm 3 m/S 745 mmHg 76%
    20:00 +8°C° 0 mm 3 m/S 745 mmHg 77%
    21:00 +6°C° 0 mm 4 m/S 745 mmHg 78%
    22:00 +6°C° 0 mm 4 m/S 744 mmHg 77%
    23:00 +6°C° 0 mm 4 m/S 744 mmHg 76%

    übermorgen, 17 November, Sonntag

    Zeit Temperatur Niederschläge Wind Luftdruck Luftfeuchtigkeit
    00:00 +5°C° 0 mm 4 m/S 743 mmHg 75%
    01:00 +5°C° 0 mm 5 m/S 742 mmHg 74%
    02:00 +4°C° 0 mm 6 m/S 742 mmHg 74%
    03:00 +4°C° 0 mm 7 m/S 741 mmHg 73%
    04:00 +2°C° 0 mm 8 m/S 741 mmHg 74%
    05:00 +2°C° 0 mm 8 m/S 740 mmHg 74%
    06:00 +2°C° 0 mm 8 m/S 740 mmHg 75%
    07:00 +3°C° 0 mm 9 m/S 740 mmHg 70%
    08:00 +3°C° 0 mm 9 m/S 740 mmHg 66%
    09:00 +5°C° 0 mm 10 m/S 740 mmHg 62%
    10:00 +6°C° 0 mm 10 m/S 741 mmHg 59%
    11:00 +7°C° 0 mm 10 m/S 741 mmHg 57%
    12:00 +8°C° 0 mm 10 m/S 741 mmHg 55%
    13:00 +7°C° 0 mm 10 m/S 741 mmHg 56%
    14:00 +7°C° 0 mm 9 m/S 741 mmHg 58%
    15:00 +6°C° 0 mm 9 m/S 741 mmHg 60%
    16:00 +6°C° 0 mm 9 m/S 742 mmHg 63%
    17:00 +5°C° 0 mm 8 m/S 742 mmHg 66%
    18:00 +4°C° 0 mm 8 m/S 742 mmHg 70%
    19:00 +4°C° 0 mm 7 m/S 743 mmHg 70%
    20:00 +4°C° 0 mm 7 m/S 743 mmHg 71%
    21:00 +4°C° 0 mm 6 m/S 744 mmHg 72%
    22:00 +3°C° 0 mm 6 m/S 744 mmHg 74%
    23:00 +3°C° 0 mm 6 m/S 744 mmHg 75%

    18 November, Montag

    Zeit Temperatur Niederschläge Wind Luftdruck Luftfeuchtigkeit
    00:00 +2°C° 0 mm 6 m/S 744 mmHg 77%
    01:00 +2°C° 0 mm 5 m/S 744 mmHg 77%
    02:00 +3°C° 0 mm 4 m/S 744 mmHg 78%
    03:00 +1°C° 0 mm 4 m/S 745 mmHg 78%
    04:00 +2°C° 0 mm 3 m/S 745 mmHg 76%
    05:00 +2°C° 0 mm 3 m/S 745 mmHg 74%
    06:00 +2°C° 0 mm 3 m/S 746 mmHg 72%
    07:00 +3°C° 0 mm 3 m/S 746 mmHg 67%
    08:00 +4°C° 0 mm 3 m/S 746 mmHg 62%
    09:00 +7°C° 0 mm 3 m/S 747 mmHg 57%
    10:00 +8°C° 0 mm 3 m/S 747 mmHg 57%
    11:00 +9°C° 0 mm 3 m/S 747 mmHg 57%
    12:00 +11°C° 0 mm 3 m/S 747 mmHg 57%
    13:00 +11°C° 0 mm 3 m/S 747 mmHg 57%
    14:00 +11°C° 0 mm 3 m/S 747 mmHg 58%
    15:00 +10°C° 0 mm 3 m/S 747 mmHg 59%
    16:00 +9°C° 0 mm 3 m/S 747 mmHg 62%
    17:00 +8°C° 0 mm 3 m/S 748 mmHg 64%
    18:00 +7°C° 0 mm 3 m/S 748 mmHg 67%
    19:00 +7°C° 0 mm 3 m/S 748 mmHg 67%
    20:00 +5°C° 0 mm 3 m/S 749 mmHg 68%
    21:00 +5°C° 0 mm 3 m/S 749 mmHg 68%
    22:00 +4°C° 0 mm 3 m/S 749 mmHg 69%
    23:00 +4°C° 0 mm 3 m/S 749 mmHg 70%

    19 November, Dienstag

    Zeit Temperatur Niederschläge Wind Luftdruck Luftfeuchtigkeit
    00:00 +4°C° 0 mm 3 m/S 749 mmHg 71%
    01:00 +4°C° 0 mm 3 m/S 749 mmHg 71%
    02:00 +3°C° 0 mm 3 m/S 749 mmHg 71%
    03:00 +3°C° 0 mm 3 m/S 749 mmHg 71%
    04:00 +3°C° 0 mm 4 m/S 749 mmHg 70%
    05:00 +3°C° 0 mm 4 m/S 749 mmHg 69%
    06:00 +3°C° 0 mm 4 m/S 749 mmHg 68%
    07:00 +4°C° 0 mm 4 m/S 749 mmHg 62%
    08:00 +5°C° 0 mm 4 m/S 749 mmHg 56%
    09:00 +8°C° 0 mm 3 m/S 750 mmHg 51%
    10:00 +8°C° 0 mm 4 m/S 750 mmHg 45%
    11:00 +10°C° 0 mm 4 m/S 749 mmHg 40%
    12:00 +11°C° 0 mm 4 m/S 749 mmHg 35%
    13:00 +11°C° 0 mm 4 m/S 749 mmHg 39%
    14:00 +10°C° 0 mm 4 m/S 749 mmHg 43%
    15:00 +10°C° 0 mm 3 m/S 749 mmHg 47%
    16:00 +9°C° 0 mm 3 m/S 749 mmHg 52%
    17:00 +7°C° 0 mm 2 m/S 749 mmHg 57%
    18:00 +6°C° 0 mm 2 m/S 749 mmHg 61%
    19:00 +6°C° 0 mm 2 m/S 749 mmHg 63%
    20:00 +6°C° 0 mm 2 m/S 749 mmHg 65%
    21:00 +6°C° 0 mm 2 m/S 750 mmHg 66%
    22:00 +6°C° 0 mm 2 m/S 749 mmHg 67%
    23:00 +6°C° 0 mm 2 m/S 749 mmHg 67%

    20 November, Mittwoch

    Zeit Temperatur Niederschläge Wind Luftdruck Luftfeuchtigkeit
    00:00 +5°C° 0 mm 3 m/S 749 mmHg 68%
    01:00 +5°C° 0 mm 3 m/S 749 mmHg 67%
    02:00 +5°C° 0 mm 4 m/S 749 mmHg 67%
    03:00 +6°C° 0 mm 4 m/S 748 mmHg 66%
    04:00 +6°C° 0.3 mm 4 m/S 748 mmHg 71%
    05:00 +6°C° 0.3 mm 4 m/S 748 mmHg 75%
    06:00 +6°C° 0.3 mm 5 m/S 748 mmHg 80%
    07:00 +6°C° 0.8 mm 5 m/S 748 mmHg 84%
    08:00 +6°C° 0.8 mm 5 m/S 748 mmHg 87%
    09:00 +7°C° 0.8 mm 5 m/S 748 mmHg 91%
    10:00 +7°C° 0.7 mm 5 m/S 748 mmHg 90%
    11:00 +7°C° 0.7 mm 5 m/S 748 mmHg 90%
    12:00 +7°C° 0.7 mm 5 m/S 748 mmHg 89%
    13:00 +7°C° 0.1 mm 6 m/S 748 mmHg 89%
    14:00 +8°C° 0.1 mm 6 m/S 747 mmHg 88%
    15:00 +8°C° 0.1 mm 6 m/S 747 mmHg 88%
    16:00 +8°C° 0.2 mm 6 m/S 747 mmHg 89%
    17:00 +8°C° 0.2 mm 6 m/S 747 mmHg 91%
    18:00 +8°C° 0.2 mm 6 m/S 747 mmHg 93%
    19:00 +8°C° 0.7 mm 5 m/S 748 mmHg 94%
    20:00 +9°C° 0.7 mm 5 m/S 748 mmHg 95%
    21:00 +10°C° 0.7 mm 4 m/S 748 mmHg 95%
    22:00 +10°C° 0.8 mm 5 m/S 748 mmHg 96%
    23:00 +10°C° 0.8 mm 5 m/S 748 mmHg 96%
    Mehr zeigen